Regional Weather Roundup
Issued by NWS

Home | Current Version | Previous Version | Graphics & Text | Print | Product List | Glossary On
Versions: 1 2 3 4 5 6 7 8 9 10 11 12 13 14 15 16 17 18 19 20 21 22 23 24 25 26 27 28 29 30 31 32 33 34 35 36 37 38 39 40 41 42 43 44 45 46 47 48 49 50
000
ASUS43 KLMK 271210
RWRKY
KENTUCKY REGIONAL WEATHER ROUNDUP
NATIONAL WEATHER SERVICE LOUISVILLE KY
800 AM EDT THU APR 27 2017

NOTE "FAIR" INDICATES FEW OR NO CLOUDS BELOW 12,000 FEET
WITH NO SIGNIFICANT WEATHER AND/OR OBSTRUCTIONS TO VISIBILITY.

KYZ001>023-026-027-061>063-070>075-271300-
WESTERN AND SOUTH CENTRAL KENTUCKY

CITY           SKY/WX    TMP DP  RH WIND       PRES   REMARKS
PADUCAH        CLOUDY    51  46  83 W8        29.69R
HENDERSON      CLOUDY    52  49  89 W13G23    29.65R
OWENSBORO      CLOUDY    54  51  90 W16       29.62R
HOPKINSVILLE   PTSUNNY   57  55  94 W15       29.66R
BOWLING GREEN  PTSUNNY   64  62  93 SW10      29.64R
GLASGOW        LGT RAIN N/A N/A N/A SW10      29.64R
$$

KYZ024-025-028>034-038-045-046-053-271300-
NORTH CENTRAL KENTUCKY

CITY           SKY/WX    TMP DP  RH WIND       PRES   REMARKS
LOUISVILLE/SDF LGT RAIN  63  60  90 S9G21     29.59F
LOUISVILLE/LOU LGT RAIN  62  61  96 S10       29.61R FOG
FORT KNOX      CLOUDY    61  61  98 S9        29.59R
$$

KYZ035>037-039>044-047>052-055>060-089>105-271300-
NORTHEAST KENTUCKY

CITY           SKY/WX    TMP DP  RH WIND       PRES   REMARKS
LEXINGTON      CLOUDY    68  57  68 S17G23    29.62R
COVINGTON      LGT RAIN  63  55  75 S7        29.58R
FRANKFORT      CLOUDY    64  57  78 S7        29.59R
$$

KYZ054-064>069-076>088-106>120-271300-
SOUTHEAST KENTUCKY

CITY           SKY/WX    TMP DP  RH WIND       PRES   REMARKS
JACKSON        LGT RAIN  64  55  72 VRB6      29.75R
LONDON         LGT RAIN  64  56  75 S15G22    29.69F
SOMERSET       CLOUDY    63  55  77 S9        29.67S
MIDDLESBORO    LGT RAIN  63  58  84 S6        29.73F
MONTICELLO     CLOUDY    64  58  80 SE7G17    29.68R
$$




USA.gov is the U.S. government's official web portal to all federal, state and local government web resources and services.